Vero Beach, FL

2:59 AM EDT on June 24, 2017 (GMT -0400)
Vero Beach Municipal

Weather History for KVRB - June, 2012

Change the Weather History Date:

Thursday, June 21, 2012

  Actual Average Record
Temperature  
Mean Temperature 81 °F 81 °F  
Max Temperature 87 °F 89 °F 98 °F (2009)
Min Temperature 75 °F 73 °F 66 °F (1965)
Degree Days  
Heating Degree Days 0 0  
Month to date heating degree days 0 0  
Since 1 June heating degree days 0 0  
Since 1 July heating degree days 230 456  
Cooling Degree Days 16 16  
Month to date cooling degree days 312 313  
Year to date cooling degree days 1351 1119  
Since 1 June cooling degree days 312 313  
Growing Degree Days 31 (Base 50)    
Moisture  
Dew Point 73 °F    
Average Humidity 80    
Maximum Humidity 94    
Minimum Humidity 65    
Precipitation  
Precipitation 0.00 in 0.23 in 1.76 in (2003)
Month to date precipitation 3.17 4.63  
Year to date precipitation 17.88 20.00  
Sea Level Pressure  
Sea Level Pressure 29.96 in    
Wind  
Wind Speed 10 mph (ESE)    
Max Wind Speed 18 mph    
Max Gust Speed 23 mph    
Visibility 10 miles    
Events      
T = Trace of Precipitation, MM = Missing Value Source: NWS Daily Summary

Daily Weather History Graph

Daily Weather History Graph

Search for Another Location

Airport or City:

Trip Planner

Search our weather history database for the weather conditions in past years. The results will help you decide how hot, cold, wet, or windy it might be!

Date:

Astronomy

Jun. 21, 2012 Rise Set
Actual Time 6:26 AM EDT 8:20 PM EDT
Civil Twilight 6:00 AM EDT 8:47 PM EDT
Nautical Twilight 5:27 AM EDT 9:19 PM EDT
Astronomical Twilight 4:53 AM EDT 9:53 PM EDT
Moon 8:14 AM EDT (6/21) 9:54 PM EDT (6/21)
Length of Visible Light 14h 46m
Length of Day
13h 53m
Waxing Crescent, 4% of the Moon is Illuminated
Jun 21
Waxing Crescent
Jun 26
First Quarter
Jul 3
Full
Jul 10
Last Quarter
Jul 19
New

Hourly Weather History & Observations

Time (EDT) Temp. Heat Index Dew Point Humidity Pressure Visibility Wind Dir Wind Speed Gust Speed Precip Events Conditions
12:27 AM 78.8 °F - 71.6 °F 78% 30.02 in 10.0 mi East 6.9 mph - N/A   Overcast
12:53 AM 78.1 °F - 72.0 °F 81% 30.01 in 10.0 mi ESE 9.2 mph - N/A   Mostly Cloudy
1:12 AM 78.8 °F - 71.6 °F 78% 30.01 in 10.0 mi ESE 8.1 mph - N/A   Scattered Clouds
1:53 AM 78.1 °F - 72.0 °F 81% 30.00 in 10.0 mi ESE 9.2 mph - N/A   Scattered Clouds
2:53 AM 77.0 °F - 72.0 °F 84% 29.98 in 10.0 mi SE 9.2 mph - N/A   Partly Cloudy
3:53 AM 75.9 °F - 73.0 °F 91% 29.97 in 10.0 mi Calm Calm - N/A   Overcast
4:53 AM 75.0 °F - 72.0 °F 90% 29.96 in 10.0 mi East 4.6 mph - N/A   Partly Cloudy
5:53 AM 75.9 °F - 72.0 °F 87% 29.96 in 10.0 mi East 5.8 mph - N/A   Clear
6:53 AM 75.9 °F - 72.0 °F 87% 29.96 in 10.0 mi East 5.8 mph - N/A   Partly Cloudy
7:53 AM 79.0 °F - 73.0 °F 82% 29.97 in 10.0 mi SE 8.1 mph - N/A   Clear
8:53 AM 81.0 °F 85.8 °F 73.0 °F 77% 29.98 in 10.0 mi East 9.2 mph - N/A   Partly Cloudy
9:53 AM 82.0 °F 87.9 °F 73.9 °F 76% 29.98 in 10.0 mi East 10.4 mph - N/A   Scattered Clouds
10:53 AM 82.0 °F 87.4 °F 73.0 °F 74% 30.00 in 10.0 mi East 11.5 mph - N/A   Mostly Cloudy
11:53 AM 84.2 °F 90.9 °F 73.4 °F 70% 29.99 in 10.0 mi ESE 13.8 mph 20.7 mph N/A   Scattered Clouds
12:53 PM 84.0 °F 91.2 °F 73.9 °F 72% 29.98 in 10.0 mi East 15.0 mph - N/A   Mostly Cloudy
1:53 PM 87.1 °F 96.3 °F 75.0 °F 67% 29.96 in 10.0 mi ESE 15.0 mph 23.0 mph N/A   Mostly Cloudy
2:53 PM 86.0 °F 93.8 °F 73.9 °F 67% 29.95 in 10.0 mi East 12.7 mph 21.9 mph N/A   Scattered Clouds
3:53 PM 84.9 °F 92.1 °F 73.9 °F 69% 29.92 in 10.0 mi ESE 16.1 mph 21.9 mph N/A   Scattered Clouds
4:53 PM 84.9 °F 92.1 °F 73.9 °F 69% 29.91 in 10.0 mi East 15.0 mph 23.0 mph N/A   Partly Cloudy
5:53 PM 84.0 °F 90.2 °F 73.0 °F 69% 29.91 in 10.0 mi East 12.7 mph - N/A   Partly Cloudy
6:53 PM 82.0 °F 87.9 °F 73.9 °F 76% 29.91 in 10.0 mi ESE 11.5 mph 19.6 mph N/A   Partly Cloudy
7:53 PM 80.1 °F 84.5 °F 73.9 °F 81% 29.91 in 10.0 mi East 9.2 mph - N/A   Partly Cloudy
8:53 PM 80.1 °F 84.2 °F 73.0 °F 79% 29.92 in 10.0 mi SE 10.4 mph - N/A   Scattered Clouds
9:53 PM 79.0 °F - 72.0 °F 79% 29.93 in 10.0 mi ESE 9.2 mph - N/A   Clear
10:53 PM 79.0 °F - 73.0 °F 82% 29.94 in 10.0 mi ESE 10.4 mph - N/A   Partly Cloudy
11:53 PM 79.0 °F - 72.0 °F 79% 29.94 in 10.0 mi ESE 8.1 mph - N/A   Clear